Погода в Дрогобыче

Украина / Львовская область     49°21′13″N   23°30′32″E
темп.,
°C
ветер,
м/с
пор.,
м/с
влажн.,
%
обл.,
%
осадки,
мм/ч
давл.,
гПа
погр.,
м
31 июля, сб
сб3100:00+19ююз33705 0.0 101144
03:00+17юз33698 0.0 101046
06:00+19юз2262100 0.0 101039
09:00+23ююз125836 0.0 1010217
12:00+29ююз23375 0.0 10092388
15:00+28в234399 0.0 10081846
18:00+22зюз5106578 0.1 1009416
21:00+17ссз3799100 0.9 1010341
1 августа, вс
вс100:00+17зсз239892 2.0 1012163
03:00+15юз22960 2.0 101220
06:00+14ююз22910 0.0 101116
09:00+20ююв12770 0.0 1011149
12:00+26вюв35505 0.0 1010959
15:00+29вюв46449 0.0 10081217
18:00+29ююв3751100 0.1 10051440
21:00+15ю41189100 7.0 1006175
2 августа, пн
пн200:00+17сз36902 0.0 1007158
03:00+16юз11935 0.0 100611
06:00+14зсз23988 0.0 100867
09:00+18сз348390 0.0 1009574
12:00+15ссз4797100 0.6 1011578
15:00+14зсз259592 2.1 1012386
18:00+15з2384100 0.1 1013343
21:00+13з229392 0.1 101425
3 августа, вт
вт300:00+12зюз22945 0.0 101522
03:00+11юз22915 0.0 101618
06:00+11юз21933 0.0 101614
09:00+17зюз12700 0.0 1017314
12:00+22сз134817 0.0 10161710
15:00+22ссз344998 0.0 10151045
18:00+22ссв125064 0.0 10151199
21:00+18юв117398 0.0 101617
4 августа, ср
ср400:00+14ю2284100 0.1 101613
03:00+16ю227696 0.1 101525
06:00+14ююз22740 0.0 101525
09:00+20ююз2458100 0.0 1015174
12:00+26юз353684 0.0 10142188
15:00+27зюз3535100 0.0 10132648
18:00+26вюв125187 0.0 1012892
21:00+20юв3775100 0.0 1012148